(221180) = 2005 UR20

Discovered at Kitt Peak on 2005-10-22 by Spacewatch.

Orbit

Orbit type: Main Belt

Note: WebGL enabled browser required.

epoch2024-03-31.0
epoch JD2460400.5
perihelion date2023-12-22.84519
perihelion JD2460301.34519
argument of perihelion (°)233.53008
ascending node (°)235.21822
inclination (°)12.92134
eccentricity0.1449270
perihelion distance (AU)2.2916024
Tisserand w.r.t. Jupiter3.3
ΔV w.r.t. Earth (km/sec)10.3
semimajor axis (AU)2.6800078
mean anomaly (°)22.27480
mean daily motion (°/day)0.22464670
aphelion distance (AU)3.068
period (years)4.39
P-vector [x]-0.30468635
P-vector [y]0.92967191
P-vector [z]0.20706611
Q-vector [x]-0.93457750
Q-vector [y]-0.24989581
Q-vector [z]-0.25321333
absolute magnitude15.51
phase slope0.15
uncertainty0
referenceE2024-GI3
observations used850
oppositions15
arc length (days)8182
first opposition used2001
last opposition used2024
residual rms (arc-secs)0.71
perturbers coarse indicatorM-v
perturbers precise indicator003Ek
first observation date used2001-11-17.0
last observation date used2024-04-12.0
computer nameMPCLINUX
JD of orbit computation2456552.199807
perihelion JD uncertainty (days)1.9866E-04
argument of perihelion uncertainty (°)4.4754E-05
ascending node uncertainty (°)2.4803E-05
inclination uncertainty (°)8.1270E-06
eccentricity uncertainty 7.1503E-08
perihelion distance uncertainty (AU)1.7593E-07
Minimum Orbit Intersection Distances (in AU)
for orbit epoch: 2460400.5, reference: E2024-GI3
Mercury1.99048
Venus1.59272
Earth1.33357
Mars0.78431
Jupiter2.22282
Saturn6.70168
Uranus15.954
Neptune27.1716

Observations

867 total observations over interval: 2001 11 17.37080 – 2024 03 18.15531
These data are available for download (format description).

Date (UT) J2000 RA J2000 Dec Magn Location Ref
2001 11 17.37080 07 28 23.86 +11 02 36.0 19.9   704 – Lincoln Laboratory ETS, New Mexico MPS 167110
2001 11 17.38560 07 28 23.90 +11 02 27.1 20.0   704 – Lincoln Laboratory ETS, New Mexico MPS 167110
2001 11 17.39989 07 28 24.07 +11 02 18.9 20.4   704 – Lincoln Laboratory ETS, New Mexico MPS 167110
2001 11 17.41417 07 28 24.12 +11 02 10.9 20.3   704 – Lincoln Laboratory ETS, New Mexico MPS 167110
2001 11 17.42847 07 28 24.20 +11 02 02.3 19.8   704 – Lincoln Laboratory ETS, New Mexico MPS 167110
2001 12 19.37310 07 17 35.15 +06 37 51.2 18.5   704 – Lincoln Laboratory ETS, New Mexico MPS 167110
2001 12 19.38875 07 17 34.34 +06 37 45.8 19.0   704 – Lincoln Laboratory ETS, New Mexico MPS 167110
2001 12 19.40443 07 17 33.61 +06 37 39.4 18.8   704 – Lincoln Laboratory ETS, New Mexico MPS 167110
2001 12 19.42014 07 17 32.82 +06 37 33.1 18.8   704 – Lincoln Laboratory ETS, New Mexico MPS 167110
2001 12 19.43588 07 17 32.03 +06 37 27.4 18.8   704 – Lincoln Laboratory ETS, New Mexico MPS 167110
2003 06 01.04462 15 04 43.45 -17 16 14.0 18.5 R 807 – Cerro Tololo Observatory, La Serena MPS 167110
2003 06 01.14100 15 04 39.32 -17 15 35.0   807 – Cerro Tololo Observatory, La Serena MPS 167110
2005 10 22.46287 03 21 21.47 +22 52 40.9 19.4 V 291 – LPL/Spacewatch II MPS 147804
2005 10 22.46696 03 21 21.32 +22 52 39.1 19.4 V 291 – LPL/Spacewatch II MPS 147804
2005 10 22.47108 03 21 21.14 +22 52 37.3 19.4 V 291 – LPL/Spacewatch II MPS 147804
2005 10 23.44574 03 20 42.14 +22 45 31.6 18.6 V 703 – Catalina Sky Survey MPS 147804
2005 10 23.45481 03 20 41.71 +22 45 27.3 19.0 V 703 – Catalina Sky Survey MPS 147804
2005 10 23.46391 03 20 41.31 +22 45 22.6 18.6 V 703 – Catalina Sky Survey MPS 147804
2005 10 23.47301 03 20 40.92 +22 45 20.4 18.4 V 703 – Catalina Sky Survey MPS 147804
2005 10 26.28575 03 18 41.75 +22 23 55.8 19.3 V 691 – Steward Observatory, Kitt Peak-Spacewatch MPS 147804
2005 10 26.30329 03 18 40.95 +22 23 47.8 19.3 V 691 – Steward Observatory, Kitt Peak-Spacewatch MPS 147804
2005 10 26.30422 03 18 40.91 +22 23 46.9 18.7 R 699 – Lowell Observatory-LONEOS MPS 167110
2005 10 26.32076 03 18 40.13 +22 23 39.5 19.3 V 691 – Steward Observatory, Kitt Peak-Spacewatch MPS 147804
2005 10 26.32619 03 18 39.84 +22 23 36.8   699 – Lowell Observatory-LONEOS MPS 167110
2005 10 26.34813 03 18 38.82 +22 23 27.1   699 – Lowell Observatory-LONEOS MPS 167110
2005 10 26.37010 03 18 38.03 +22 23 16.6   699 – Lowell Observatory-LONEOS MPS 167110
2005 10 29.31830 03 16 22.71 +21 59 21.1 19.0   704 – Lincoln Laboratory ETS, New Mexico MPS 147804
2005 10 29.33158 03 16 22.07 +21 59 13.9 19.2   704 – Lincoln Laboratory ETS, New Mexico MPS 147804
2005 10 29.34496 03 16 21.38 +21 59 07.5 19.0   704 – Lincoln Laboratory ETS, New Mexico MPS 147804
2005 10 29.37149 03 16 20.04 +21 58 54.5 18.9   704 – Lincoln Laboratory ETS, New Mexico MPS 147804
2005 10 29.38861 03 16 19.20 +21 58 45.6 18.7 V 703 – Catalina Sky Survey MPS 147804
2005 10 29.39452 03 16 18.94 +21 58 42.7 18.5 V 703 – Catalina Sky Survey MPS 147804
2005 10 29.40045 03 16 18.66 +21 58 39.7 18.5 V 703 – Catalina Sky Survey MPS 147804
2005 10 29.40635 03 16 18.33 +21 58 37.0 18.6 V 703 – Catalina Sky Survey MPS 147804
2005 10 30.29221 03 15 36.20 +21 51 08.5 19.2 V 691 – Steward Observatory, Kitt Peak-Spacewatch MPS 147804
2005 10 30.30971 03 15 35.26 +21 50 58.3 18.8 V 691 – Steward Observatory, Kitt Peak-Spacewatch MPS 147804
2005 10 30.32722 03 15 34.43 +21 50 50.7 19.2 V 691 – Steward Observatory, Kitt Peak-Spacewatch MPS 147804
2005 11 01.26108 03 13 59.59 +21 34 07.9 18.8   704 – Lincoln Laboratory ETS, New Mexico MPS 147804
2005 11 01.27339 03 13 58.96 +21 34 00.7 19.5   704 – Lincoln Laboratory ETS, New Mexico MPS 147804
2005 11 01.28557 03 13 58.27 +21 33 54.4 19.3   704 – Lincoln Laboratory ETS, New Mexico MPS 147804
2005 11 01.29798 03 13 57.64 +21 33 47.8 19.5   704 – Lincoln Laboratory ETS, New Mexico MPS 147804
2005 11 01.31011 03 13 57.05 +21 33 41.4 19.3   704 – Lincoln Laboratory ETS, New Mexico MPS 147804
2005 11 03.25387 03 12 18.79 +21 16 19.8 19.1 V 691 – Steward Observatory, Kitt Peak-Spacewatch MPS 147804
2005 11 03.27145 03 12 17.86 +21 16 10.4 19.2 V 691 – Steward Observatory, Kitt Peak-Spacewatch MPS 147804
2005 11 03.28896 03 12 16.93 +21 16 00.9 19.1 V 691 – Steward Observatory, Kitt Peak-Spacewatch MPS 147804
2005 11 04.28830 03 11 25.43 +21 06 52.6 19.5   704 – Lincoln Laboratory ETS, New Mexico MPS 149718
2005 11 04.30071 03 11 24.83 +21 06 46.3 19.5   704 – Lincoln Laboratory ETS, New Mexico MPS 149718
2005 11 04.31327 03 11 24.12 +21 06 40.2 19.3   704 – Lincoln Laboratory ETS, New Mexico MPS 149718
2005 11 04.32615 03 11 23.42 +21 06 33.5 19.5   704 – Lincoln Laboratory ETS, New Mexico MPS 149718
2005 11 07.26153 03 08 49.57 +20 39 06.0 19.4   704 – Lincoln Laboratory ETS, New Mexico MPS 149718
2005 11 07.27384 03 08 48.87 +20 38 58.9 19.3   704 – Lincoln Laboratory ETS, New Mexico MPS 149718
2005 11 07.28605 03 08 48.18 +20 38 51.8 19.4   704 – Lincoln Laboratory ETS, New Mexico MPS 149718
2005 11 07.29826 03 08 47.52 +20 38 44.8 19.3   704 – Lincoln Laboratory ETS, New Mexico MPS 149718
2005 11 07.31048 03 08 46.82 +20 38 38.3 19.2   704 – Lincoln Laboratory ETS, New Mexico MPS 149718
2005 11 08.26842 03 07 56.04 +20 29 27.9 18.2   704 – Lincoln Laboratory ETS, New Mexico MPS 149718
2005 11 08.28093 03 07 55.36 +20 29 21.3 18.8   704 – Lincoln Laboratory ETS, New Mexico MPS 149718
2005 11 08.29382 03 07 54.62 +20 29 13.5 18.6   704 – Lincoln Laboratory ETS, New Mexico MPS 149718
2005 11 08.30657 03 07 53.92 +20 29 06.2 18.4   704 – Lincoln Laboratory ETS, New Mexico MPS 149718
2005 11 08.31921 03 07 53.18 +20 28 58.9 19.1   704 – Lincoln Laboratory ETS, New Mexico MPS 149718
2005 11 10.17078 03 06 14.70 +20 11 03.1 18.6 V 691 – Steward Observatory, Kitt Peak-Spacewatch MPS 149718
2005 11 10.20148 03 06 13.00 +20 10 45.4 18.6 V 691 – Steward Observatory, Kitt Peak-Spacewatch MPS 149718
2005 11 10.21891 03 06 12.05 +20 10 35.2 18.6 V 691 – Steward Observatory, Kitt Peak-Spacewatch MPS 149718
2005 11 11.25260 03 05 16.66 +20 00 28.3 18.2   704 – Lincoln Laboratory ETS, New Mexico MPS 149718
2005 11 11.26527 03 05 15.97 +20 00 20.7 18.7   704 – Lincoln Laboratory ETS, New Mexico MPS 149718
2005 11 11.27803 03 05 15.25 +20 00 13.2 18.7   704 – Lincoln Laboratory ETS, New Mexico MPS 149718
2005 11 11.29064 03 05 14.52 +20 00 05.4 18.3   704 – Lincoln Laboratory ETS, New Mexico MPS 149718
2005 11 11.30307 03 05 13.88 +19 59 58.1 18.9   704 – Lincoln Laboratory ETS, New Mexico MPS 149718
2005 11 12.25556 03 04 23.05 +19 50 35.0 18.0   704 – Lincoln Laboratory ETS, New Mexico MPS 149718
2005 11 12.26841 03 04 22.33 +19 50 27.3 18.7   704 – Lincoln Laboratory ETS, New Mexico MPS 149718
2005 11 12.28108 03 04 21.63 +19 50 19.9 18.5   704 – Lincoln Laboratory ETS, New Mexico MPS 149718
2005 11 12.29374 03 04 20.95 +19 50 12.9 18.2   704 – Lincoln Laboratory ETS, New Mexico MPS 149718
2005 11 12.30639 03 04 20.26 +19 50 04.8 18.4   704 – Lincoln Laboratory ETS, New Mexico MPS 149718
2005 11 20.25306 02 57 25.98 +18 30 34.4 18.6 R 699 – Lowell Observatory-LONEOS MPS 150847
2005 11 20.28137 02 57 24.59 +18 30 16.5   699 – Lowell Observatory-LONEOS MPS 150848
2005 11 20.30968 02 57 23.09 +18 30 01.0   699 – Lowell Observatory-LONEOS MPS 150848
2005 11 20.33800 02 57 21.60 +18 29 43.1   699 – Lowell Observatory-LONEOS MPS 150848
2005 11 28.26741 02 51 12.27 +17 11 40.7 18.9 V 703 – Catalina Sky Survey MPS 152217
2005 11 28.27278 02 51 12.06 +17 11 36.8 18.8 V 703 – Catalina Sky Survey MPS 152217
2005 11 28.27817 02 51 11.77 +17 11 34.8 18.8 V 703 – Catalina Sky Survey MPS 152217
2005 11 28.28355 02 51 11.62 +17 11 33.3 19.0 V 703 – Catalina Sky Survey MPS 152217
2005 11 29.18486 02 50 34.03 +17 02 57.6 18.4 R 699 – Lowell Observatory-LONEOS MPS 152217
2005 11 29.20767 02 50 33.11 +17 02 45.4   699 – Lowell Observatory-LONEOS MPS 152217
2005 11 29.23047 02 50 32.03 +17 02 31.9   699 – Lowell Observatory-LONEOS MPS 152217
2005 11 29.25330 02 50 31.03 +17 02 19.3   699 – Lowell Observatory-LONEOS MPS 152217
2005 12 01.19858 02 49 13.49 +16 44 07.5 19.3   704 – Lincoln Laboratory ETS, New Mexico MPS 153753
